Location: *
(45.5224°N, 122.7471°W)
Time: 04:22:57
(UTC+00:00)

STARLINK-1055 - Pass Details

Date: 09 April 2020
Orbit: 548 x 551 km, 53.0° (Epoch: 25 May)

Event Time Altitude Azimuth Distance (km) Brightness Sun altitude
Exits shadow 12:55:27 - 267° (W) 1,929 5.8 -7.5°
Reaches altitude 10° 12:55:44 10° 269° (W) 1,823 5.7 -7.5°
Maximum altitude 12:59:41 41° 340° (NNW) 801 4.5 -6.8°
Drops below altitude 10° 13:03:38 10° 52° (NE) 1,829 7.7 -6.2°
Sets 13:05:59 0° 60° (ENE) 2,725 9.2 -5.8°
